Weather History for Tuscaloosa, AL

Change the Weather History Date:

Sunday, September 15, 2013

  Actual Average Record
Temperature  
Mean Temperature 74 °F 76 °F  
Max Temperature 91 °F 87 °F 102 °F (1980)
Min Temperature 56 °F 64 °F 52 °F (1961)
Degree Days  
Heating Degree Days 0 0  
Month to date heating degree days 0 0  
Since 1 July heating degree days 0 0  
Cooling Degree Days 8    
Growing Degree Days 23 (Base 50)    
Moisture  
Dew Point 58 °F    
Average Humidity 63    
Maximum Humidity 93    
Minimum Humidity 32    
Precipitation  
Precipitation 0.00 in 0.12 in 1.24 in (1957)
Month to date precipitation 0.08 1.78  
Year to date precipitation 38.90 37.65  
Sea Level Pressure  
Sea Level Pressure 30.07 in    
Wind  
Wind Speed 1 mph (NNW)    
Max Wind Speed 12 mph    
Max Gust Speed 20 mph    
Visibility 10 miles    
Events      
T = Trace of Precipitation, MM = Missing Value Source: NWS Daily Summary

Daily Weather History Graph

Daily Weather History Graph

Search for Another Location

Airport:

Trip Planner

Search our weather history database for the weather conditions in past years. The results will help you decide how hot, cold, wet, or windy it might be!

Date:

Astronomy

Sep. 15, 2013 Rise Set
Actual Time 6:34 AM CDT 6:56 PM CDT
Civil Twilight 6:09 AM CDT 7:21 PM CDT
Nautical Twilight 5:40 AM CDT 7:50 PM CDT
Astronomical Twilight 5:10 AM CDT 8:19 PM CDT
Moon 4:14 PM CDT (9/15) 2:22 AM CDT (9/15)
Length of Visible Light 13h 11m
Length of Day
12h 22m
Waxing Gibbous, 82% of the Moon is Illuminated
Sep 15
Waxing Gibbous
Sep 19
Full
Sep 26
Last Quarter
Oct 4
New
Oct 11
First Quarter

Hourly Weather History & Observations

Time (CDT) Temp. Heat Index Dew Point Humidity Pressure Visibility Wind Dir Wind Speed Gust Speed Precip Events Conditions
12:53 AM 60.1 °F - 57.0 °F 90% 30.04 in 10.0 mi Calm Calm - N/A   Clear
1:53 AM 60.1 °F - 55.9 °F 86% 30.04 in 10.0 mi Calm Calm - N/A   Clear
2:53 AM 57.9 °F - 55.0 °F 90% 30.04 in 10.0 mi Calm Calm - N/A   Clear
3:53 AM 57.0 °F - 54.0 °F 89% 30.05 in 10.0 mi Calm Calm - N/A   Clear
4:53 AM 57.0 °F - 54.0 °F 89% 30.05 in 10.0 mi Calm Calm - N/A   Clear
5:53 AM 55.9 °F - 53.1 °F 90% 30.06 in 10.0 mi Calm Calm - N/A   Clear
6:53 AM 57.0 °F - 54.0 °F 89% 30.08 in 10.0 mi Calm Calm - N/A   Clear
7:53 AM 62.1 °F - 57.0 °F 84% 30.09 in 10.0 mi Calm Calm - N/A   Clear
8:53 AM 69.1 °F - 60.1 °F 73% 30.10 in 10.0 mi Calm Calm - N/A   Clear
9:53 AM 75.9 °F - 60.1 °F 58% 30.11 in 10.0 mi Calm Calm - N/A   Clear
10:53 AM 81.0 °F 81.6 °F 60.1 °F 49% 30.11 in 10.0 mi Calm Calm - N/A   Clear
11:53 AM 84.9 °F 83.7 °F 55.9 °F 37% 30.10 in 10.0 mi Variable 4.6 mph - N/A   Clear
12:53 PM 87.1 °F 85.9 °F 57.0 °F 36% 30.09 in 10.0 mi Calm Calm - N/A   Clear
1:53 PM 88.0 °F 86.7 °F 57.0 °F 35% 30.08 in 10.0 mi WNW 6.9 mph - N/A   Clear
2:53 PM 89.1 °F 87.7 °F 57.0 °F 34% 30.06 in 10.0 mi Calm Calm - N/A   Clear
3:53 PM 91.0 °F 90.0 °F 57.9 °F 33% 30.05 in 10.0 mi Variable 4.6 mph - N/A   Clear
4:53 PM 90.0 °F 88.6 °F 57.0 °F 33% 30.05 in 10.0 mi NNW 5.8 mph - N/A   Clear
5:53 PM 89.1 °F 87.7 °F 57.0 °F 34% 30.05 in 10.0 mi North 5.8 mph - N/A   Clear
6:53 PM 79.0 °F - 63.0 °F 58% 30.05 in 10.0 mi Calm Calm - N/A   Clear
7:53 PM 75.9 °F - 61.0 °F 60% 30.06 in 10.0 mi Calm Calm - N/A   Clear
8:53 PM 71.1 °F - 63.0 °F 75% 30.09 in 10.0 mi Calm Calm - N/A   Clear
9:53 PM 70.0 °F - 63.0 °F 78% 30.09 in 10.0 mi Calm Calm - N/A   Clear
10:53 PM 66.0 °F - 63.0 °F 90% 30.09 in 10.0 mi Calm Calm - N/A   Clear
11:53 PM 66.0 °F - 63.0 °F 90% 30.09 in 9.0 mi Calm Calm - N/A   Clear